Location: Newark
(48.1500°N, 2.9667°W)
Time: 18:40:10
(UTC+00:00)

Transit 2A - Pass Details

Date: 26 January 2020
Orbit: 599 x 959 km, 66.7° (Epoch: 25 February)

Event Time Altitude Azimuth Distance (km) Brightness Sun altitude
Rises 04:13:46 0° 325° (NW) 2,957 - -35.5°
Reaches altitude 10° 04:15:59 10° 328° (NNW) 2,083 - -35.2°
Maximum altitude 04:20:41 76° 54° (NE) 730 - -34.4°
Exits shadow 04:24:17 20° 138° (SE) 1,680 8.0 -33.8°
Drops below altitude 10° 04:25:53 10° 140° (SE) 2,286 8.7 -33.5°
Sets 04:28:24 0° 142° (SE) 3,270 9.6 -33.1°
